This is the latest recevied weather packets stored in our database for station/object DC4XK-10. If no packets are shown the sender has not sent any weather packets the latest 10 day(s).
| Time | Temp. | Humidity | Pressure | Rain* | Wind** | Luminosity | Snow |
|---|---|---|---|---|---|---|---|
| 1778141334 | 11.11° C | 75% | 1014 hPa | 0 mm | 0 m/s | - | - |
| 1778140731 | 10.56° C | 76% | 1013.9 hPa | 0 mm | 0 m/s | - | - |
| 1778140131 | 10.56° C | 76% | 1013.6 hPa | 0 mm | 0 m/s | - | - |
| 1778139530 | 10° C | 78% | 1013.8 hPa | 0 mm | 0 m/s | - | - |
| 1778138931 | 10° C | 78% | 1013.8 hPa | 0 mm | 0 m/s | - | - |
| 1778138330 | 9.44° C | 80% | 1013.8 hPa | 0 mm | 0 m/s | - | - |
| 1778137731 | 9.44° C | 83% | 1013.4 hPa | 0 mm | 0 m/s | - | - |
| 1778137131 | 10° C | 81% | 1013.6 hPa | 0 mm | 0 m/s | - | - |
| 1778136531 | 9.44° C | 81% | 1013.5 hPa | 0 mm | 0.45 m/s, 42° | - | - |
| 1778135931 | 9.44° C | 83% | 1013.4 hPa | 0 mm | 0 m/s | - | - |
| 1778135331 | 8.89° C | 83% | 1013.4 hPa | 0 mm | 0 m/s | - | - |
| 1778134731 | 8.89° C | 85% | 1012.9 hPa | 0 mm | 0 m/s | - | - |
| 1778134131 | 8.33° C | 88% | 1012.9 hPa | 0 mm | 0 m/s | - | - |
| 1778133531 | 7.78° C | 89% | 1013 hPa | 0 mm | 0 m/s | - | - |
| 1778132932 | 7.22° C | 94% | 1013.2 hPa | 0 mm | 0 m/s | - | - |
| 1778132330 | 7.22° C | 94% | 1012.9 hPa | 0 mm | 0 m/s | - | - |
| 1778131731 | 6.67° C | 95% | 1012.7 hPa | 0 mm | 0 m/s | - | - |
| 1778131133 | 6.67° C | 96% | 1012.8 hPa | 0 mm | 0 m/s | - | - |
| 1778130530 | 6.11° C | 97% | 1012.6 hPa | 0 mm | 0 m/s | - | - |
| 1778129931 | 5.56° C | 98% | 1012.4 hPa | 0 mm | 0 m/s | - | - |
| 1778129334 | 5.56° C | 98% | 1012.4 hPa | 0 mm | 0 m/s | - | - |
| 1778128731 | 5° C | 97% | 1012.3 hPa | 0 mm | 0 m/s | - | - |
| 1778128130 | 5° C | 97% | 1012.1 hPa | 0 mm | 0 m/s | - | - |
| 1778127531 | 5.56° C | 97% | 1012.1 hPa | 0 mm | 0 m/s | - | - |
| 1778126931 | 5.56° C | 96% | 1012 hPa | 0 mm | 0 m/s | - | - |
* Rain latest hour (hover to see other rain measurements)
** Current wind speed in m/s (hover to see current wind gust speed)